Presure
179 249 294 247 288 253 282 274 215 88 185 176 160 155 142 171 173 160 149 168 154 146 152 147 131 126 146 151 147 132 153 152 149 147 146 152 156 143 158 153 150 148 149 152 148
253 159 222 242 166 293 280 277 300 221 158 85 171 108 140 156 182 159 161 157 160 126 151 150 149 121 144 136 158 130 133 155 154 145 144 152 148 149 148 151 149 154 158 156 148
164 136 281 292 203 313 277 293 284 269 268 210 153 161 152 144 157 166 132 167 162 159 163 156 155 147 150 146 147 162 121 116 129 156 147 140 142 145 145 148 144 143 140 139 145
238 235 223 277 262 257 284 320 213 291 245 298 207 149 146 157 135 80 185 141 153 144 167 164 151 152 144 140 152 121 168 132 156 143 152 147 144 143 145 142 145 150 173 151 147
218 226 252 209 149 262 366 244 367 304 227 288 286 224 212 86 119 89 127 166 144 147 143 171 152 157 153 152 143 150 167 162 150 156 150 150 146 153 143 153 143 143 146 158 160
235 233 246 279 292 352 293 342 241 268 373 171 322 294 231 208 181 111 163 104 147 182 168 173 165 162 161 148 152 152 163 164 120 156 139 140 153 147 148 143 145 158 149 155 148
238 230 228 245 304 345 393 396 158 344 145 337 182 291 273 216 188 156 90 103 88 158 172 183 179 163 153 166 136 152 158 165 142 153 150 132 137 141 152 147 156 140 137 137 164
241 242 228 247 286 317 368 409 375 269 392 352 226 283 320 255 87 204 189 163 92 161 170 163 183 160 154 152 155 162 163 164 160 114 157 158 135 116 145 148 147 150 156 144 130
233 245 234 278 246 348 372 341 336 435 419 403 303 208 194 306 245 154 179 174 158 93 167 171 173 148 149 164 163 157 162 153 164 161 129 155 152 156 146 137 151 139 151 154 148
232 239 233 256 258 283 378 396 300 387 217 172 163 144 302 353 248 65 75 111 183 135 161 158 161 182 145 143 152 157 153 159 140 166 170 130 162 107 110 136 159 148 151 150 145
233 238 243 233 260 312 373 412 428 424 430 393 160 413 129 369 302 253 242 213 176 191 183 82 153 179 170 150 149 159 168 160 149 143 171 157 162 104 105 134 111 159 155 139 134
236 250 248 274 245 309 336 392 425 431 440 414 214 416 180 166 209 282 131 235 213 174 182 175 164 173 177 167 166 150 154 162 168 176 137 163 161 123 167 147 132 160 161 161 142
231 237 244 243 297 308 316 405 435 421 433 408 374 354 386 369 207 148 149 250 226 200 182 191 151 138 158 174 167 154 159 173 152 182 168 162 182 187 145 150 164 143 149 163 161
219 251 229 274 257 297 300 364 433 408 432 440 413 439 383 362 171 303 246 225 177 213 204 196 80 143 188 193 192 130 155 148 154 184 182 170 178 192 164 184 164 151 157 161 165
221 229 257 255 270 314 334 365 434 411 421 414 405 422 367 338 104 130 294 280 247 234 92 186 189 82 71 137 155 157 168 152 162 201 184 168 187 180 191 190 176 181 166 173 162
229 240 235 264 307 309 323 393 436 408 409 426 401 401 405 355 354 344 126 310 218 243 230 207 197 199 192 150 162 92 141 162 175 196 198 192 163 174 192 158 147 141 181 129 165
244 247 254 260 298 294 334 403 431 405 418 426 406 351 411 380 362 306 314 233 162 243 242 220 203 85 71 167 174 183 174 133 188 113 163 104 205 163 158 126 159 173 189 141 155
235 257 250 277 302 302 397 416 421 407 418 400 102 400 314 403 368 353 335 212 238 295 251 228 212 206 178 84 162 171 157 159 186 191 192 82 119 167 165 126 104 156 175 195 199
245 269 270 296 295 294 412 429 417 413 411 399 403 368 353 314 368 344 352 308 227 356 278 175 209 107 81 188 181 143 121 159 154 205 168 184 171 180 103 164 176 178 169 169 197
255 272 286 298 304 325 432 433 408 414 403 390 395 390 382 383 378 356 337 326 248 151 157 197 236 222 190 171 181 164 69 159 146 151 163 163 121 59 175 180 112 144 165 140 181
267 276 286 297 278 405 439 425 400 410 395 379 380 385 384 368 388 362 363 329 318 311 289 322 275 232 210 203 204 197 91 182 193 161 191 169 142 152 155 190 113 149 161 176 177
273 301 291 328 347 423 434 414 400 408 384 368 375 369 371 378 379 365 363 355 325 314 298 297 305 254 236 215 90 195 65 169 185 146 157 161 161 181 163 131 93 127 134 193 156
284 299 320 322 352 429 424 413 397 406 380 360 351 358 361 390 370 355 353 361 330 321 311 166 303 300 251 219 213 213 207 212 185 202 132 167 137 141 171 183 165 180 150 174 99
280 315 342 322 352 434 407 406 395 401 378 354 327 351 349 383 372 345 326 335 350 319 316 302 300 306 302 259 141 222 217 209 212 162 159 143 170 145 166 173 167 176 172 175 61
320 333 312 281 288 430 408 407 388 394 384 357 431 325 342 364 368 229 337 317 311 329 345 311 301 309 315 327 260 96 224 214 212 210 190 89 104 154 150 95 173 180 171 175 181
327 353 311 366 396 418 416 401 381 386 387 353 418 425 338 336 355 364 347 319 317 321 329 337 398 306 349 295 314 281 234 223 218 218 211 206 76 129 181 125 147 132 131 138 144
328 295 283 319 404 407 394 397 375 379 383 354 322 412 379 327 350 353 400 300 282 284 301 306 312 382 214 214 302 301 295 241 234 217 105 141 198 168 81 82 83 83 86 121 159
Wind_Speed
62 62 59 67 75 89 91 102 111 41 98 90 86 76 72 81 82 78 75 75 71 65 65 63 55 45 52 47 44 42 42 43 42 39 38 36 35 36 33 35 33 33 31 28 29
52 70 61 58 71 75 97 95 98 114 83 38 87 44 73 80 82 79 86 71 77 54 70 67 63 46 58 52 50 41 43 47 47 43 42 39 38 38 37 34 33 31 29 31 32
57 67 50 50 73 64 83 102 101 100 109 115 80 91 83 74 80 93 61 79 83 78 77 73 68 67 62 57 56 54 37 36 40 46 45 43 41 40 38 36 37 36 35 33 32
62 57 56 56 57 67 64 73 77 102 101 108 115 79 80 86 71 27 85 71 79 70 81 78 72 71 67 60 64 41 54 48 54 49 48 48 46 44 41 41 39 38 33 36 34
61 59 64 59 75 60 61 73 65 73 93 102 112 127 113 45 69 40 68 89 77 74 71 85 76 77 73 69 65 62 56 61 54 54 52 51 49 48 46 45 42 39 38 36 36
66 62 65 68 63 63 56 56 75 69 73 86 102 117 124 102 100 60 95 56 81 94 89 90 86 84 78 73 69 69 59 63 42 57 49 52 55 52 51 48 45 43 43 41 42
70 65 59 60 66 64 56 53 84 62 70 83 93 101 119 107 109 92 50 57 42 89 95 99 97 84 79 80 66 73 60 63 59 64 62 44 49 54 52 49 48 46 38 38 43
76 73 62 69 71 62 58 51 57 65 62 76 93 110 109 113 24 116 106 95 51 94 88 90 101 84 79 75 76 75 66 63 69 39 65 64 55 27 50 52 53 54 51 48 32
80 81 69 80 61 70 59 49 52 48 59 67 97 83 91 114 118 83 106 103 95 40 102 101 92 73 74 79 77 73 68 66 74 74 51 60 72 67 51 51 57 46 54 54 52
90 84 72 80 75 71 63 53 50 50 87 80 74 59 93 103 107 17 22 54 112 73 92 91 83 94 70 62 67 76 73 73 70 80 78 47 74 30 36 52 63 60 56 56 56
99 91 90 66 82 79 65 53 53 50 51 67 73 71 69 92 122 125 134 128 105 118 107 51 72 93 90 82 87 80 82 80 79 74 80 68 70 37 39 50 33 70 67 52 38
104 104 97 100 75 81 70 60 54 50 44 57 93 67 80 88 112 128 64 134 125 101 108 91 86 96 101 98 93 76 78 80 85 85 57 75 73 46 67 61 50 69 67 66 59
110 101 102 98 95 84 75 59 53 51 45 43 63 66 74 90 62 72 77 133 132 119 108 111 81 71 89 105 98 78 79 92 78 92 80 78 76 81 61 61 73 62 64 66 64
95 112 90 106 94 91 76 68 50 50 48 29 50 55 75 86 77 115 116 119 96 124 122 114 14 79 108 108 107 61 84 85 87 100 86 81 76 79 73 71 70 71 71 70 68
105 104 110 106 104 90 82 72 48 50 48 31 43 55 77 84 65 73 106 139 133 134 46 106 115 30 22 71 80 89 101 87 95 107 90 74 74 74 75 70 71 78 73 71 68
114 113 103 109 97 89 81 64 50 49 40 34 40 53 67 81 85 97 63 126 111 138 140 126 124 120 107 91 92 30 68 91 99 101 93 80 64 70 72 74 70 69 76 59 73
119 118 119 112 97 90 82 62 47 43 39 30 37 61 52 75 79 95 109 126 78 130 144 135 125 25 16 100 102 109 96 63 97 43 62 14 78 66 76 53 82 80 77 66 72
116 117 113 109 97 90 71 57 46 42 31 33 17 41 61 61 78 84 101 119 117 131 141 139 132 126 106 40 96 96 89 73 92 91 86 33 63 66 78 69 52 79 77 78 79
124 120 113 100 96 89 63 50 42 38 29 35 38 53 61 65 76 85 89 108 127 70 135 95 127 52 27 122 118 76 64 84 72 104 83 80 66 74 45 82 84 81 76 76 78
126 121 115 100 94 88 54 42 36 33 30 33 40 46 54 63 74 83 93 102 101 73 77 71 143 139 124 109 113 97 20 87 71 69 71 72 47 9 76 85 52 78 81 66 77
124 119 111 102 90 62 45 37 33 29 28 31 38 44 52 66 66 83 86 95 103 109 125 109 139 141 141 129 128 122 43 106 107 70 86 72 71 79 75 86 57 84 82 81 79
118 108 106 94 87 56 41 37 31 27 27 34 39 46 53 61 65 73 83 90 95 106 119 122 124 143 143 135 25 132 28 99 106 68 75 78 79 87 87 63 45 72 69 84 77
118 109 101 92 81 49 40 33 30 25 28 35 39 46 51 58 68 72 74 75 93 99 104 91 123 129 141 137 139 132 122 125 102 113 59 77 68 65 88 89 87 85 82 86 50
111 103 96 90 71 42 40 33 31 25 26 36 44 48 51 59 68 79 81 76 69 94 99 111 120 124 128 141 71 137 130 122 120 90 85 61 94 85 89 92 90 94 95 90 15
107 98 90 87 86 39 40 30 30 25 26 37 29 51 54 59 67 55 84 82 82 74 70 103 112 108 109 108 140 38 140 131 127 119 102 18 52 94 91 44 99 99 89 85 86
105 96 84 71 53 41 39 28 31 29 26 37 34 37 56 58 66 71 82 77 73 63 54 61 76 101 90 111 112 132 142 140 129 126 120 114 23 88 107 75 80 72 71 76 81
103 96 93 78 45 38 34 32 30 30 26 37 47 42 50 61 64 68 82 84 83 84 77 79 76 65 116 120 104 114 125 142 138 126 39 64 111 107 25 29 30 31 38 68 89
Wind_Direction
270 283 268 261 261 255 253 251 242 252 241 236 233 235 237 230 231 233 235 231 232 230 225 225 234 227 223 229 235 233 223 229 227 223 228 230 229 232 231 230 231 232 231 232 237
306 264 255 275 261 261 257 253 248 238 242 249 237 243 234 233 233 233 233 230 233 235 228 226 223 236 224 226 230 233 231 226 228 225 226 232 232 231 231 232 232 235 237 236 237
282 270 300 296 266 287 260 250 252 244 238 239 239 233 233 234 233 232 235 231 233 232 229 225 223 227 223 223 228 227 231 231 229 226 226 231 233 234 236 239 236 236 240 242 243
325 321 298 310 291 280 277 262 250 248 238 236 238 239 233 233 237 232 231 235 235 234 231 228 227 224 228 227 226 229 225 232 227 227 226 228 232 236 236 238 239 244 241 250 246
318 321 327 297 260 292 293 258 265 253 243 238 233 234 232 247 235 238 238 230 236 231 235 230 230 226 223 223 228 224 222 226 227 223 227 228 231 228 235 234 242 242 244 244 246
328 328 331 331 324 315 285 278 256 252 245 242 232 231 232 227 227 234 231 232 237 229 232 231 229 225 224 226 224 227 218 226 233 227 231 234 227 231 232 238 238 236 244 242 249
330 328 325 328 327 323 302 283 253 255 251 239 238 233 227 226 226 234 232 236 234 233 231 230 229 228 228 223 236 229 219 225 231 229 225 238 232 235 229 236 233 246 247 251 245
336 333 328 335 334 327 317 289 271 257 249 242 237 233 226 223 140 228 226 229 232 233 228 230 230 228 230 229 225 227 222 222 229 228 229 223 240 230 231 235 237 239 237 246 242
339 338 333 335 328 331 321 301 276 265 254 242 233 237 229 221 222 228 222 229 228 226 232 232 228 230 231 230 226 229 227 220 231 230 233 226 232 231 228 242 237 244 238 240 245
342 340 333 337 333 333 327 312 288 266 239 244 241 233 229 223 220 247 245 224 225 236 226 229 229 229 232 231 234 230 229 225 236 231 229 233 229 234 238 239 236 243 240 239 244
344 340 340 332 335 334 328 314 295 276 258 247 249 235 234 220 219 220 225 223 231 224 226 220 233 229 230 231 230 230 232 229 231 239 231 227 230 227 241 233 243 236 238 239 248
343 344 342 338 331 332 331 323 299 281 269 249 229 232 231 235 222 218 227 223 224 232 225 232 229 227 228 230 230 229 232 236 236 233 241 229 227 227 227 232 247 235 240 241 248
344 343 341 338 333 330 331 322 299 288 281 242 239 232 223 220 224 221 235 222 223 223 229 225 225 228 226 227 229 229 233 237 238 235 230 234 230 235 238 231 233 244 237 241 244
341 340 339 337 336 333 330 327 299 291 282 255 234 230 222 221 234 218 221 221 221 221 223 224 211 231 227 227 228 232 231 232 234 236 231 231 228 232 237 232 236 241 238 238 242
340 341 338 337 336 332 329 326 295 290 287 265 232 232 221 222 238 240 220 221 219 222 235 227 224 216 264 228 229 229 233 232 235 232 232 230 227 234 236 238 239 243 241 244 241
338 338 338 335 328 331 329 319 295 291 296 275 229 228 224 221 214 212 225 220 221 218 222 219 221 221 222 230 227 201 232 233 234 236 233 233 230 233 233 243 244 248 243 242 243
338 335 336 335 330 331 328 314 294 297 293 260 235 224 225 220 219 218 216 222 225 219 220 219 219 240 266 230 231 230 233 234 236 213 231 255 232 233 243 244 246 244 243 253 250
335 335 334 330 329 329 323 310 298 295 273 249 249 220 225 217 216 218 215 222 223 223 220 219 220 220 225 238 233 232 234 233 237 238 233 248 243 233 236 233 238 250 248 246 246
337 332 331 328 330 328 318 307 295 290 264 237 220 212 218 218 215 216 216 210 225 225 223 225 221 221 221 222 227 230 229 230 226 234 227 229 225 232 254 245 249 247 248 250 249
335 331 328 331 324 325 312 301 297 289 259 237 225 212 207 209 215 217 215 212 220 230 227 231 218 218 220 221 225 229 241 231 225 223 226 231 230 222 238 241 244 251 250 242 250
332 331 330 327 326 320 309 300 294 288 252 233 223 215 211 209 208 216 216 215 217 217 223 221 220 218 219 221 224 227 226 231 230 229 229 229 234 234 236 241 247 249 250 252 253
330 330 327 326 328 314 307 297 294 287 247 230 221 217 213 212 206 213 217 216 218 219 219 221 221 220 220 220 236 225 240 229 227 217 222 223 224 232 234 238 253 249 246 252 254
332 329 326 323 326 307 301 296 290 284 244 223 216 217 218 209 206 208 215 218 217 220 221 227 223 219 220 220 221 225 226 229 230 228 229 227 236 234 235 238 242 246 245 248 246
329 326 326 325 321 302 300 293 287 286 239 221 218 214 218 207 204 204 213 215 215 220 220 220 224 221 221 223 232 225 228 230 232 230 227 222 226 235 234 237 238 242 242 245 228
324 325 325 324 322 300 297 287 282 280 239 223 246 218 213 210 205 212 207 215 219 221 228 223 226 224 223 223 225 232 226 227 228 229 230 235 257 235 236 256 236 238 242 246 251
324 324 324 324 316 299 291 282 272 272 244 223 236 229 213 211 209 204 200 206 210 206 207 222 223 225 223 223 226 227 225 228 230 229 230 229 226 244 229 248 245 251 253 252 252
324 324 326 323 312 306 291 277 267 267 244 225 213 227 218 212 209 205 202 208 216 220 216 223 224 218 225 228 225 227 227 228 229 231 236 234 234 234 237 253 242 248 251 256 250